• In Spain
  • List of Countries
  • For 7 days
  • Water Temperature
  • Satellite Maps
  • Weather Map
  • Weather Widgets
  • user-avatar
    Login

    Hourly Weather Novyy Berezay

    Today, 25 May, Friday

    Time Temperature Precipitation Wind Pressure Humidity
    00:00 +10°C° 0 mm 2 mps 753 mmHg 79%
    01:00 +9°C° 0 mm 2 mps 753 mmHg 77%
    02:00 +8°C° 0 mm 2 mps 753 mmHg 82%
    03:00 +8°C° 0 mm 2 mps 754 mmHg 77%
    04:00 +8°C° 0 mm 2 mps 754 mmHg 72%
    05:00 +9°C° 0 mm 2 mps 754 mmHg 66%
    06:00 +12°C° 0 mm 2 mps 754 mmHg 58%
    07:00 +14°C° 0 mm 2 mps 755 mmHg 51%
    08:00 +16°C° 0 mm 3 mps 755 mmHg 43%
    09:00 +17°C° 0 mm 3 mps 755 mmHg 40%
    10:00 +18°C° 0 mm 2 mps 755 mmHg 38%
    11:00 +19°C° 0 mm 2 mps 755 mmHg 35%
    12:00 +19°C° 0 mm 2 mps 755 mmHg 34%
    13:00 +20°C° 0 mm 2 mps 755 mmHg 34%
    14:00 +21°C° 0 mm 2 mps 755 mmHg 33%
    15:00 +20°C° 0 mm 2 mps 755 mmHg 35%
    16:00 +20°C° 0 mm 2 mps 755 mmHg 36%
    17:00 +20°C° 0 mm 2 mps 755 mmHg 38%
    18:00 +19°C° 0 mm 1 mps 755 mmHg 45%
    19:00 +16°C° 0 mm 1 mps 755 mmHg 53%
    20:00 +14°C° 0 mm 1 mps 755 mmHg 61%
    21:00 +13°C° 0 mm 1 mps 756 mmHg 63%
    22:00 +12°C° 0 mm 1 mps 756 mmHg 65%
    23:00 +11°C° 0 mm 1 mps 756 mmHg 67%

    Tomorrow, 26 May, Saturday

    Time Temperature Precipitation Wind Pressure Humidity
    00:00 +11°C° 0 mm 1 mps 757 mmHg 68%
    01:00 +10°C° 0 mm 1 mps 757 mmHg 70%
    02:00 +10°C° 0 mm 1 mps 758 mmHg 72%
    03:00 +10°C° 0 mm 1 mps 758 mmHg 71%
    04:00 +11°C° 0 mm 1 mps 758 mmHg 70%
    05:00 +11°C° 0 mm 1 mps 758 mmHg 69%
    06:00 +14°C° 0 mm 2 mps 758 mmHg 61%
    07:00 +16°C° 0 mm 2 mps 759 mmHg 53%
    08:00 +18°C° 0 mm 2 mps 759 mmHg 46%
    09:00 +19°C° 0 mm 2 mps 759 mmHg 42%
    10:00 +21°C° 0 mm 2 mps 758 mmHg 39%
    11:00 +23°C° 0 mm 2 mps 758 mmHg 35%
    12:00 +23°C° 0 mm 2 mps 758 mmHg 35%
    13:00 +24°C° 0 mm 2 mps 758 mmHg 34%
    14:00 +24°C° 0 mm 2 mps 757 mmHg 34%
    15:00 +24°C° 0 mm 2 mps 757 mmHg 36%
    16:00 +24°C° 0 mm 2 mps 756 mmHg 38%
    17:00 +24°C° 0 mm 2 mps 756 mmHg 40%
    18:00 +20°C° 0 mm 2 mps 756 mmHg 49%
    19:00 +18°C° 0 mm 2 mps 756 mmHg 57%
    20:00 +16°C° 0 mm 2 mps 756 mmHg 66%
    21:00 +15°C° 0 mm 2 mps 756 mmHg 68%
    22:00 +14°C° 0 mm 2 mps 756 mmHg 71%
    23:00 +13°C° 0 mm 2 mps 756 mmHg 73%

    Day after tomorrow, 27 May, Sunday

    Time Temperature Precipitation Wind Pressure Humidity
    00:00 +13°C° 0 mm 2 mps 756 mmHg 73%
    01:00 +13°C° 0 mm 2 mps 756 mmHg 74%
    02:00 +12°C° 0 mm 2 mps 756 mmHg 75%
    03:00 +12°C° 0 mm 3 mps 756 mmHg 75%
    04:00 +12°C° 0 mm 3 mps 755 mmHg 74%
    05:00 +13°C° 0 mm 3 mps 755 mmHg 74%
    06:00 +16°C° 0 mm 3 mps 755 mmHg 69%
    07:00 +17°C° 0 mm 4 mps 755 mmHg 64%
    08:00 +19°C° 0 mm 4 mps 754 mmHg 59%
    09:00 +20°C° 0 mm 4 mps 754 mmHg 55%
    10:00 +22°C° 0 mm 4 mps 754 mmHg 52%
    11:00 +23°C° 0 mm 4 mps 754 mmHg 48%
    12:00 +23°C° 0 mm 4 mps 753 mmHg 47%
    13:00 +25°C° 0 mm 4 mps 753 mmHg 47%
    14:00 +25°C° 0 mm 4 mps 753 mmHg 47%
    15:00 +23°C° 0.1 mm 4 mps 753 mmHg 47%
    16:00 +23°C° 0.1 mm 4 mps 752 mmHg 47%
    17:00 +22°C° 0.1 mm 4 mps 752 mmHg 47%
    18:00 +20°C° 0 mm 4 mps 753 mmHg 48%
    19:00 +18°C° 0 mm 3 mps 753 mmHg 49%
    20:00 +14°C° 0 mm 3 mps 753 mmHg 50%
    21:00 +13°C° 0 mm 3 mps 754 mmHg 52%
    22:00 +12°C° 0 mm 2 mps 754 mmHg 55%
    23:00 +10°C° 0 mm 2 mps 755 mmHg 57%

    28 May, Monday

    Time Temperature Precipitation Wind Pressure Humidity
    00:00 +9°C° 0 mm 2 mps 755 mmHg 59%
    01:00 +9°C° 0 mm 2 mps 756 mmHg 60%
    02:00 +8°C° 0 mm 2 mps 756 mmHg 62%
    03:00 +8°C° 0 mm 2 mps 756 mmHg 60%
    04:00 +9°C° 0 mm 2 mps 757 mmHg 58%
    05:00 +9°C° 0 mm 2 mps 757 mmHg 57%
    06:00 +12°C° 0 mm 2 mps 757 mmHg 51%
    07:00 +14°C° 0 mm 2 mps 758 mmHg 46%
    08:00 +16°C° 0 mm 2 mps 758 mmHg 41%
    09:00 +17°C° 0 mm 2 mps 758 mmHg 36%
    10:00 +18°C° 0 mm 2 mps 758 mmHg 32%
    11:00 +19°C° 0 mm 2 mps 758 mmHg 28%
    12:00 +20°C° 0 mm 2 mps 758 mmHg 27%
    13:00 +21°C° 0 mm 2 mps 757 mmHg 27%
    14:00 +21°C° 0 mm 2 mps 757 mmHg 26%
    15:00 +21°C° 0 mm 2 mps 757 mmHg 28%
    16:00 +21°C° 0 mm 2 mps 757 mmHg 30%
    17:00 +22°C° 0 mm 1 mps 757 mmHg 32%
    18:00 +19°C° 0 mm 1 mps 757 mmHg 40%
    19:00 +16°C° 0 mm 1 mps 757 mmHg 48%
    20:00 +13°C° 0 mm 0 mps 757 mmHg 56%
    21:00 +12°C° 0 mm 0 mps 757 mmHg 56%
    22:00 +13°C° 0 mm 1 mps 757 mmHg 57%
    23:00 +12°C° 0 mm 1 mps 757 mmHg 57%

    29 May, Tuesday

    Time Temperature Precipitation Wind Pressure Humidity
    00:00 +11°C° 0 mm 1 mps 757 mmHg 58%
    01:00 +11°C° 0 mm 1 mps 758 mmHg 59%
    02:00 +11°C° 0 mm 1 mps 758 mmHg 60%
    03:00 +11°C° 0 mm 1 mps 758 mmHg 61%
    04:00 +12°C° 0 mm 1 mps 758 mmHg 61%
    05:00 +12°C° 0 mm 1 mps 758 mmHg 62%
    06:00 +15°C° 0 mm 2 mps 758 mmHg 56%
    07:00 +17°C° 0 mm 2 mps 758 mmHg 50%
    08:00 +19°C° 0 mm 2 mps 757 mmHg 44%
    09:00 +21°C° 0 mm 2 mps 757 mmHg 40%
    10:00 +23°C° 0 mm 2 mps 757 mmHg 37%
    11:00 +24°C° 0 mm 2 mps 756 mmHg 33%
    12:00 +25°C° 0 mm 2 mps 756 mmHg 33%
    13:00 +25°C° 0 mm 3 mps 755 mmHg 33%
    14:00 +26°C° 0 mm 3 mps 755 mmHg 33%
    15:00 +25°C° 0 mm 3 mps 754 mmHg 35%
    16:00 +25°C° 0 mm 3 mps 754 mmHg 38%
    17:00 +25°C° 0 mm 3 mps 753 mmHg 41%
    18:00 +22°C° 0 mm 3 mps 753 mmHg 50%
    19:00 +20°C° 0 mm 2 mps 752 mmHg 60%
    20:00 +18°C° 0 mm 2 mps 752 mmHg 70%
    21:00 +17°C° 0 mm 2 mps 752 mmHg 72%
    22:00 +16°C° 0 mm 2 mps 752 mmHg 75%
    23:00 +15°C° 0 mm 2 mps 751 mmHg 78%

    30 May, Wednesday

    Time Temperature Precipitation Wind Pressure Humidity
    00:00 +14°C° 0 mm 2 mps 751 mmHg 78%
    01:00 +14°C° 0 mm 2 mps 751 mmHg 79%
    02:00 +14°C° 0 mm 2 mps 750 mmHg 80%
    03:00 +13°C° 0 mm 3 mps 750 mmHg 78%
    04:00 +14°C° 0 mm 3 mps 750 mmHg 76%
    05:00 +14°C° 0 mm 3 mps 749 mmHg 73%
    06:00 +17°C° 0 mm 4 mps 749 mmHg 66%
    07:00 +19°C° 0 mm 4 mps 749 mmHg 59%
    08:00 +21°C° 0 mm 4 mps 748 mmHg 52%
    09:00 +22°C° 0 mm 5 mps 748 mmHg 49%
    10:00 +25°C° 0 mm 5 mps 747 mmHg 46%
    11:00 +26°C° 0 mm 6 mps 747 mmHg 43%
    12:00 +27°C° 0 mm 6 mps 747 mmHg 42%
    13:00 +27°C° 0 mm 6 mps 746 mmHg 40%
    14:00 +27°C° 0 mm 6 mps 746 mmHg 39%
    15:00 +27°C° 0 mm 6 mps 745 mmHg 41%
    16:00 +27°C° 0 mm 5 mps 745 mmHg 42%
    17:00 +26°C° 0 mm 5 mps 745 mmHg 44%
    18:00 +25°C° 0 mm 4 mps 745 mmHg 50%
    19:00 +22°C° 0 mm 4 mps 745 mmHg 57%
    20:00 +20°C° 0 mm 3 mps 745 mmHg 63%
    21:00 +18°C° 0 mm 3 mps 745 mmHg 61%
    22:00 +17°C° 0 mm 3 mps 745 mmHg 60%
    23:00 +14°C° 0 mm 3 mps 746 mmHg 59%
    Show more